Location: Oberkirch
(48.5323°N, 8.0787°E)
Time: 18:16:52
(UTC+00:00)

Vanguard 1 - All Passes

Search period start: 18 February 2026 00:00
Search period end: 28 February 2026 00:00
Orbit: 652 x 3819 km, 34.3° (Epoch: 17 February)

Date Brightness Start Highest point End Pass type
(mag) Time Alt. Az. Time Alt. Az. Time Alt. Az.
18 Feb - 13:06:04 10° S 13:13:01 20° SE 13:22:54 10° E daylight
18 Feb - 15:21:49 10° SW 15:32:51 43° SSE 15:50:58 10° E daylight
18 Feb - 17:41:03 10° WSW 17:55:32 49° S 18:16:46 10° ESE visible
18 Feb - 20:02:48 10° W 20:19:13 36° SSW 20:38:46 10° SSE visible
18 Feb - 22:30:50 10° WSW 22:41:27 16° SW 22:52:15 10° SSW visible
19 Feb - 13:23:54 10° SSW 13:31:35 25° SE 13:43:13 10° E daylight
19 Feb - 15:40:39 10° SW 15:51:56 46° SSE 16:10:35 10° ESE daylight
19 Feb - 18:00:17 10° WSW 18:14:51 47° S 18:35:50 10° SE visible
19 Feb - 20:22:38 10° W 20:38:18 31° SSW 20:56:38 10° SSE visible
19 Feb - 22:56:59 10° WSW 23:00:04 10° SW 23:03:10 10° SW visible
20 Feb - 13:42:07 10° SSW 13:50:15 30° SSE 14:03:15 10° E daylight
20 Feb - 15:59:36 10° WSW 16:11:06 47° S 16:30:06 10° ESE daylight
20 Feb - 18:19:36 10° W 18:34:08 44° SSW 18:54:42 10° SE visible
20 Feb - 20:42:48 10° W 20:57:18 26° SW 21:13:59 10° S visible
21 Feb - 11:48:44 10° SE 11:50:34 11° SE 11:52:36 10° ESE daylight
21 Feb - 14:00:35 10° SW 14:09:04 35° SSE 14:23:06 10° E daylight
21 Feb - 16:18:39 10° WSW 16:30:20 47° S 16:49:31 10° ESE daylight
21 Feb - 18:39:02 10° W 18:53:24 39° SSW 19:13:17 10° SE visible
21 Feb - 21:03:29 10° W 21:16:14 21° SW 21:30:35 10° S visible
22 Feb - 12:04:30 10° SSE 12:09:01 15° SE 12:14:52 10° ESE daylight
22 Feb - 14:19:14 10° SW 14:28:00 38° SSE 14:42:49 10° E daylight
22 Feb - 16:37:46 10° WSW 16:49:36 46° S 17:08:47 10° ESE daylight
22 Feb - 18:58:35 10° W 19:12:38 35° SSW 19:31:33 10° SSE visible
22 Feb - 21:25:16 10° WSW 21:35:07 15° SW 21:45:52 10° SSW visible
23 Feb - 12:22:00 10° S 12:27:34 20° SE 12:35:28 10° E daylight
23 Feb - 14:38:02 10° SW 14:47:01 41° SSE 15:02:25 10° ESE daylight
23 Feb - 16:56:57 10° WSW 17:08:52 44° S 17:27:53 10° SE visible
23 Feb - 19:18:21 10° W 19:31:49 30° SSW 19:49:25 10° SSE visible
23 Feb - 21:51:33 10° SW 21:53:57 10° SW 21:56:23 10° SW visible
24 Feb - 12:40:04 10° SSW 12:46:14 24° SE 12:55:34 10° E daylight
24 Feb - 14:56:57 10° WSW 15:06:07 42° S 15:21:56 10° ESE daylight
24 Feb - 17:16:13 10° WSW 17:28:10 40° SSW 17:46:46 10° SE visible
24 Feb - 19:38:28 10° W 19:50:56 25° SW 20:06:43 10° S visible
25 Feb - 12:58:27 10° SSW 13:05:00 28° SSE 13:15:25 10° E daylight
25 Feb - 15:15:57 10° WSW 15:25:17 43° S 15:41:20 10° ESE daylight
25 Feb - 17:35:36 10° WSW 17:47:26 36° SSW 18:05:22 10° SE visible
25 Feb - 19:59:09 10° WSW 20:10:02 19° SW 20:23:12 10° S visible
26 Feb - 13:17:02 10° SW 13:23:52 32° SSE 13:35:06 10° ESE daylight
26 Feb - 15:35:02 10° WSW 15:44:30 41° S 16:00:36 10° ESE daylight
26 Feb - 17:55:08 10° WSW 18:06:42 32° SSW 18:23:38 10° SSE visible
26 Feb - 20:21:05 10° WSW 20:29:04 14° SW 20:38:12 10° SSW visible
27 Feb - 11:20:39 10° S 11:24:03 14° SE 11:28:18 10° ESE daylight
27 Feb - 13:35:48 10° SW 13:42:52 35° SSE 13:54:41 10° ESE daylight
27 Feb - 15:54:11 10° WSW 16:03:44 39° S 16:19:42 10° SE daylight
27 Feb - 18:14:55 10° WSW 18:25:56 27° SSW 18:41:27 10° SSE visible
